Location: Augirein
(42.9320°N, 0.9181°E)
Time: 15:46:45
(UTC+00:00)

Cosmos 405 Rocket - Pass Details

Date: 20 June 2021
Orbit: 489 x 552 km, 81.3° (Epoch: 03 August)

Event Time Altitude Azimuth Distance (km) Brightness Sun altitude
Exits shadow 00:23:54 36° 77° (ENE) 790 3.7 -23.4°
Drops below altitude 10° 00:26:55 10° 26° (NNE) 1,688 6.3 -23.3°
Sets 00:29:08 0° 18° (NNE) 2,577 7.6 -23.2°
